Wind_Speed
22 20 20 21 22 22 21 21 22 24 25 24 21 20 21 21 20 19 18 17 17 17 17 17 16 16 17 17 17 17 16 15 13 13 13 14 15 15 15 15 15 15 15 15 15 15 15 16 16 16 16 15 15 14 14 13 14 14 14 15 15 16 16 17 18 18 18 18 18 19 19 20 19 19 19 20 20 20 21 22 22 22 22 22 22
23 22 23 24 24 23 21 21 22 23 24 25 23 21 22 22 21 19 20 19 19 20 19 19 19 18 18 19 19 19 19 18 17 16 16 16 17 17 18 18 18 18 18 18 17 17 17 16 16 16 16 16 16 16 15 15 15 15 16 16 17 17 18 19 20 20 21 21 21 21 22 23 23 22 22 23 23 22 23 23 24 24 24 24 24
26 25 25 26 25 24 22 21 23 23 24 26 26 24 23 24 23 21 20 21 22 22 22 21 21 20 20 21 21 21 20 20 20 20 20 19 19 19 20 21 22 22 22 22 21 20 19 19 18 18 18 18 18 18 17 17 17 16 16 17 17 18 18 19 20 21 22 23 24 24 25 25 26 25 25 26 26 25 25 26 25 25 26 26 26
27 26 24 24 24 24 23 23 25 25 25 26 27 26 25 26 27 25 23 23 24 25 25 24 23 22 22 23 23 23 22 22 22 22 23 23 22 23 23 23 24 25 25 25 24 23 21 21 20 20 19 19 19 19 18 18 18 17 17 17 17 18 18 19 20 21 22 24 25 25 26 27 28 28 28 29 29 29 29 29 29 29 28 28 28
29 28 26 25 25 25 25 26 28 28 26 26 26 25 25 27 28 27 26 26 26 26 27 27 26 25 25 25 25 25 24 24 24 25 25 25 26 26 26 26 26 26 26 26 26 25 24 22 22 21 20 20 20 19 20 19 19 19 19 19 19 20 20 20 21 21 22 24 25 26 27 27 28 29 30 30 31 31 32 32 32 32 32 32 31
32 31 29 29 29 28 28 28 29 29 29 29 27 27 28 28 28 28 27 26 25 26 27 27 28 28 28 28 27 28 27 26 27 28 28 29 29 30 30 29 28 27 28 27 27 26 26 25 24 24 23 22 22 22 22 22 21 21 22 22 22 22 22 22 23 23 24 25 26 27 28 29 29 30 30 30 31 32 33 33 34 34 34 35 35
35 34 34 34 32 31 32 31 31 32 32 32 30 30 31 31 30 30 29 27 25 24 24 25 27 29 31 31 30 30 29 28 29 32 33 34 34 34 33 31 29 29 29 28 28 28 28 28 27 27 26 25 25 24 24 24 23 23 23 24 24 24 25 25 25 25 26 27 27 28 29 30 31 31 32 32 32 32 32 33 34 35 35 35 36
38 37 37 36 34 34 35 35 35 36 36 35 34 32 32 33 32 32 33 32 29 27 28 28 27 27 29 32 33 33 32 31 32 34 36 37 37 35 33 32 31 31 30 28 28 28 29 30 30 29 29 29 28 27 27 26 26 26 26 26 27 27 27 27 27 28 28 29 29 30 31 32 33 33 34 34 34 34 34 33 34 35 36 36 37
39 39 38 38 36 36 38 39 39 40 39 39 37 35 33 34 34 34 35 36 36 35 35 34 32 31 30 30 31 33 34 34 35 35 35 35 33 30 29 31 32 32 31 30 30 30 31 32 32 32 32 31 30 30 30 29 29 29 29 29 29 29 29 30 30 30 30 31 31 32 33 34 35 36 36 37 37 37 37 36 35 35 36 37 38
41 40 39 37 37 38 39 40 40 41 42 42 41 39 37 37 37 38 39 40 41 41 39 38 37 37 36 35 34 34 35 37 37 36 35 34 33 32 32 32 31 32 33 33 33 34 34 34 34 34 33 33 33 33 33 32 32 32 31 31 31 32 34 35 35 35 35 35 35 35 36 37 38 39 39 40 41 40 40 40 38 37 37 37 38
42 40 39 38 39 39 40 39 40 41 42 43 43 42 42 42 42 42 43 44 45 45 44 42 41 40 40 40 39 39 39 40 40 40 39 39 38 38 39 39 36 34 35 35 36 36 36 35 34 34 33 34 35 36 34 33 34 35 35 35 37 40 41 42 42 42 41 41 40 40 40 40 41 42 42 43 44 44 44 44 43 41 40 39 39
42 41 41 41 41 39 39 39 40 41 42 43 43 42 42 42 42 43 43 44 45 46 45 45 45 44 44 44 44 44 44 43 43 43 43 42 41 41 42 43 42 40 40 40 41 41 41 40 39 39 39 38 38 38 37 37 39 41 43 44 45 47 47 47 47 46 46 45 45 45 45 45 45 45 46 46 46 47 48 48 48 47 45 44 42
44 43 43 43 42 41 39 39 39 40 41 41 41 40 40 41 41 41 41 42 42 43 44 44 45 46 46 47 48 48 48 47 46 45 44 43 43 44 44 45 45 44 44 45 45 45 46 47 47 48 48 48 46 45 45 46 48 49 50 51 51 51 50 49 49 49 48 48 48 48 48 48 48 48 48 48 48 49 50 51 51 51 50 50 48
48 47 46 46 45 43 41 40 39 39 39 39 39 40 40 41 42 42 42 42 42 42 42 43 44 45 45 46 46 47 47 47 46 45 44 43 43 44 45 46 47 47 47 47 47 47 47 48 50 51 53 54 53 51 50 51 52 52 53 54 53 52 51 50 50 50 49 49 49 49 50 50 50 50 50 50 50 50 51 51 52 53 53 53 52
52 51 50 49 48 46 45 43 41 40 40 40 41 43 44 44 44 44 44 44 44 44 44 44 44 44 44 45 44 44 44 44 44 44 43 43 43 43 44 45 46 47 47 47 48 48 48 48 48 50 51 52 51 50 50 51 51 52 52 51 51 50 50 50 50 50 50 50 51 51 51 51 51 51 51 51 51 51 51 52 52 53 54 54 54
53 52 51 49 49 48 47 45 43 41 42 43 45 47 48 48 47 47 48 48 48 48 47 46 45 45 45 45 44 44 44 44 43 43 44 43 43 43 43 44 45 46 47 47 47 48 47 46 46 47 48 48 47 47 48 50 50 50 50 50 49 50 51 51 51 51 51 52 52 52 52 52 52 52 52 52 52 52 52 52 53 54 54 53 53
53 52 51 50 49 48 46 45 45 44 45 46 48 49 50 50 51 51 51 51 51 51 50 49 48 47 46 46 45 45 45 45 45 44 44 44 44 44 44 44 45 46 46 47 46 46 46 45 45 46 48 47 47 47 48 48 49 49 49 49 49 50 52 52 52 52 52 52 52 52 53 53 53 53 53 54 54 54 53 53 54 55 54 54 54
50 50 50 50 49 48 47 47 48 49 50 50 51 52 52 52 53 53 53 53 52 52 51 51 50 49 48 48 47 46 45 45 45 45 45 45 45 45 44 44 44 45 45 45 45 45 44 45 45 46 47 47 47 47 47 48 48 48 49 48 49 50 51 52 52 52 52 52 52 52 52 53 54 54 55 55 55 56 55 55 56 56 56 56 56
50 49 50 50 51 51 52 53 53 54 54 54 53 53 53 53 54 54 54 53 52 51 51 51 51 50 50 49 48 48 47 46 46 46 46 46 46 46 46 45 45 46 46 46 46 45 44 45 46 46 46 46 47 47 48 48 48 49 49 49 49 50 51 51 51 51 52 52 52 52 53 53 54 55 55 55 56 57 57 57 57 57 57 57 58
55 54 54 56 56 57 57 57 56 55 55 54 54 53 54 54 55 54 53 52 51 50 49 50 51 51 51 51 51 51 50 50 49 48 48 48 48 47 47 47 47 47 48 48 47 46 46 46 47 47 46 47 47 48 48 49 49 49 49 49 50 50 51 51 52 52 52 52 53 53 54 54 55 55 56 56 57 57 58 58 58 59 59 58 59
58 57 58 59 60 60 59 58 57 56 55 54 54 54 55 55 55 54 53 53 51 50 50 50 51 51 52 52 52 52 52 51 50 49 49 49 48 48 47 47 47 47 47 47 46 46 47 47 48 48 48 49 49 49 49 49 49 49 49 50 51 51 51 51 52 53 53 54 54 55 55 56 56 57 57 58 58 58 58 58 58 59 59 59 59
61 60 60 61 62 63 63 61 60 59 57 56 55 55 54 54 54 54 53 52 51 50 50 49 50 50 50 50 50 50 49 49 48 48 48 47 47 47 46 45 45 45 45 45 46 47 47 48 48 48 48 49 49 49 49 49 49 50 50 51 51 52 52 53 53 54 55 55 56 56 57 57 57 58 58 58 58 58 57 57 57 58 58 59 59
64 64 64 64 64 64 64 63 62 61 59 58 56 55 54 53 52 52 52 50 49 48 47 47 48 48 48 48 48 48 47 47 47 47 46 46 45 45 44 44 43 43 44 44 45 46 47 47 47 48 48 48 48 49 49 50 50 50 51 51 52 52 53 54 54 55 55 56 56 56 57 57 57 57 57 56 56 55 55 54 54 55 56 57 58
66 65 65 64 64 64 63 63 62 61 60 59 57 56 54 53 52 51 50 49 47 46 46 46 46 46 46 46 46 46 46 46 46 46 45 45 44 44 43 43 42 43 43 44 44 44 45 45 46 47 47 48 48 49 49 50 50 50 50 50 50 51 51 52 53 53 54 54 54 54 55 55 55 55 54 54 53 52 52 52 52 53 53 54 55
66 65 64 63 62 62 62 62 61 61 60 59 58 56 55 54 52 51 50 49 47 46 45 45 45 45 45 45 45 45 45 45 45 45 44 44 43 43 42 42 42 43 43 43 42 42 42 43 44 44 45 45 46 47 48 48 48 48 48 48 48 48 49 50 50 51 52 52 52 52 53 54 54 54 53 53 52 52 52 53 53 53 53 54 54
66 65 64 63 62 61 61 60 60 59 59 58 57 56 55 54 53 51 50 49 48 47 45 44 44 44 44 44 44 44 44 44 44 44 43 43 42 41 41 41 43 43 42 41 41 41 41 42 42 42 42 42 43 44 44 45 45 45 45 46 46 47 48 49 50 51 52 52 52 52 53 53 54 54 54 54 55 55 56 56 56 56 57 58 58
65 65 65 63 61 61 60 59 58 57 57 56 56 55 55 53 52 51 50 49 48 47 45 43 42 42 43 43 42 42 42 43 43 42 42 41 40 40 40 41 41 41 40 40 40 40 40 40 40 40 40 40 41 42 42 44 45 45 46 47 47 48 50 51 52 52 53 53 53 54 54 54 54 54 55 56 57 58 59 59 59 60 61 61 60
62 62 62 62 60 58 57 57 56 56 56 56 55 55 54 53 52 51 49 48 47 45 44 41 39 40 42 41 40 40 41 41 41 41 41 40 40 39 39 38 39 39 39 39 39 39 39 39 39 39 40 41 41 42 44 44 45 46 47 47 48 49 49 50 50 51 51 52 52 52 53 53 53 53 54 56 57 58 60 61 62 62 61 61 59
59 59 59 59 58 56 54 53 54 55 56 56 55 54 53 52 51 49 47 46 45 44 42 40 38 39 40 39 39 40 41 41 41 41 40 39 39 38 38 38 38 39 39 39 39 39 39 39 40 40 41 42 42 42 43 43 43 43 43 43 44 44 44 45 45 46 47 48 50 51 51 52 53 55 56 57 59 60 62 62 61 60 59 58 57
58 58 58 58 57 55 53 52 53 54 55 54 53 53 52 51 49 48 46 44 43 42 41 39 39 40 40 39 38 39 40 40 41 40 39 39 38 38 38 39 39 39 39 39 39 39 39 39 40 40 40 40 39 38 37 37 37 37 37 38 39 40 42 43 45 46 48 50 51 52 54 55 56 58 59 59 59 59 58 57 56 55 55 54 54
58 58 57 57 56 56 54 53 52 52 52 52 52 52 52 50 49 48 46 44 43 41 40 39 38 38 39 39 39 38 39 39 40 39 39 39 39 38 39 39 39 39 39 40 40 39 39 38 38 37 35 33 32 31 31 32 33 34 36 38 40 42 44 46 48 50 51 52 53 54 56 56 56 56 55 54 53 52 51 51 51 51 51 51 51
59 59 58 57 56 55 54 53 51 50 50 50 51 50 49 49 48 47 45 43 42 41 39 38 37 37 38 39 38 37 38 38 39 39 39 39 39 39 39 39 39 40 40 39 38 37 35 33 31 28 26 26 26 28 29 31 33 35 38 40 42 44 46 47 49 50 51 51 51 51 51 51 51 50 49 48 47 46 46 46 46 46 46 46 46
60 59 59 58 57 56 54 52 51 50 50 50 49 47 46 46 46 45 44 43 42 40 38 37 37 38 38 37 36 36 37 38 38 39 39 39 39 39 38 39 39 38 37 35 33 30 27 24 21 21 21 23 25 27 29 31 33 35 37 38 39 41 43 44 45 46 46 47 47 47 47 47 46 44 42 41 40 39 38 37 37 36 36 35 35
59 59 58 58 58 56 54 53 51 50 50 48 46 45 45 45 44 44 43 42 41 39 38 38 38 38 37 37 36 37 37 38 38 38 38 38 38 37 37 36 34 31 29 26 23 20 18 17 17 19 20 21 23 25 27 29 30 32 34 36 37 39 41 42 43 44 44 45 45 44 42 38 35 32 30 29 29 28 26 26 26 25 25 25 25
56 56 57 57 57 56 55 54 52 50 49 47 46 45 44 43 42 42 41 40 39 38 38 38 38 37 37 36 36 37 37 37 38 37 37 36 35 33 32 29 25 22 19 16 14 14 14 15 15 15 15 17 19 22 25 27 29 31 33 34 37 39 40 41 41 40 39 38 35 31 27 23 21 21 20 20 20 19 19 19 19 20 20 21 21
49 51 53 54 54 54 54 53 52 51 49 47 46 45 43 42 41 39 38 37 37 37 37 36 35 35 35 34 35 35 35 35 34 34 33 31 29 27 24 20 17 15 13 13 14 14 13 11 10 10 12 16 19 23 25 27 29 30 32 34 37 38 36 34 31 29 28 25 22 19 18 17 16 16 15 15 16 17 18 19 19 20 21 22 23
40 42 45 47 49 50 51 51 50 49 47 46 45 43 41 39 38 37 36 35 35 34 33 33 32 31 31 30 30 30 29 28 28 27 26 25 23 20 17 15 14 14 14 14 13 11 8 6 6 9 13 17 21 24 26 28 28 29 32 35 36 33 27 23 21 20 20 20 19 18 16 15 13 13 14 15 16 17 19 21 22 24 25 26 26
31 33 35 38 41 43 44 45 45 44 43 42 39 37 36 35 33 33 33 32 31 29 28 27 27 26 24 23 23 22 22 22 22 21 21 19 18 16 16 17 16 16 15 13 10 7 4 4 6 10 13 17 21 24 27 28 29 29 32 34 33 27 20 19 19 18 18 18 17 15 12 11 11 12 13 15 17 19 21 22 23 24 25 26 26
24 25 26 28 30 33 35 36 36 36 33 31 30 29 28 28 28 29 28 27 25 24 23 22 21 20 18 17 17 18 18 18 18 17 17 16 16 17 17 17 17 16 13 11 8 6 4 4 6 10 13 17 20 24 27 29 29 30 32 33 29 22 18 18 18 17 15 15 13 10 9 9 10 12 14 17 18 19 18 18 18 20 22 23 24
18 20 20 20 21 23 24 26 27 25 21 19 22 25 24 24 25 25 23 22 21 21 20 19 17 16 15 15 16 16 15 14 14 14 14 15 16 17 17 17 16 14 12 10 9 7 4 3 6 9 13 16 20 24 27 30 30 30 32 31 25 19 16 15 15 14 13 12 11 9 9 10 11 13 15 16 15 14 13 14 16 18 20 21 21
12 13 15 15 17 18 19 21 24 23 19 17 20 23 24 24 24 22 20 19 19 19 18 17 15 15 15 15 15 15 14 13 13 14 14 15 16 16 16 15 15 13 12 11 9 6 3 3 6 9 12 16 19 23 27 30 31 31 33 31 25 17 14 14 13 12 11 11 11 10 11 12 12 13 13 12 11 10 12 15 16 18 20 19 17
9 11 12 14 15 17 20 24 25 25 24 23 23 24 25 25 24 22 19 18 17 17 18 17 15 15 16 16 16 15 13 12 14 15 16 17 16 15 15 14 14 13 13 11 9 5 3 4 7 9 12 15 18 22 26 30 32 32 32 33 29 21 15 14 12 10 10 10 10 10 11 12 12 11 9 9 9 10 14 16 18 18 19 19 16
11 11 12 13 15 17 21 24 25 24 24 26 27 28 26 24 22 20 18 16 16 18 18 17 16 16 16 17 16 14 12 13 15 17 18 17 15 14 14 14 13 13 13 10 8 6 6 6 7 9 12 14 17 21 24 28 31 32 33 34 32 27 19 15 13 11 9 9 9 10 11 11 11 9 7 6 8 11 15 18 18 18 17 16 16
19 19 19 19 20 21 22 23 24 24 26 27 28 26 22 20 19 18 17 17 18 18 17 16 16 16 16 17 16 15 14 16 18 18 17 15 14 13 14 13 13 14 12 10 9 8 8 7 8 10 12 14 17 20 23 26 30 33 33 33 33 31 25 18 14 12 11 9 9 11 11 9 8 7 6 6 8 12 15 17 17 17 17 16 15
27 28 29 28 27 25 23 22 22 22 22 23 23 21 20 19 19 18 18 18 18 17 16 16 16 16 16 16 17 17 18 19 19 17 15 14 13 13 13 13 13 13 12 11 10 10 9 8 9 10 12 14 16 19 22 25 28 32 34 34 33 33 30 23 16 13 12 10 10 12 11 8 7 7 7 7 9 12 14 15 15 16 17 16 15
21 23 23 22 20 18 16 15 15 15 16 17 18 18 17 17 18 18 18 18 17 17 16 16 15 15 16 17 18 19 20 20 18 16 14 13 14 14 13 13 13 13 12 12 11 11 10 10 10 11 12 14 16 18 20 23 26 29 32 34 34 34 33 29 22 16 13 12 12 12 11 8 6 6 6 8 9 11 12 13 14 15 16 17 16
13 14 13 12 11 11 12 13 14 13 12 13 14 15 15 15 16 16 16 16 16 16 16 15 15 16 18 20 21 21 20 18 16 14 13 13 14 13 13 13 13 13 12 13 13 12 11 11 11 11 12 14 15 17 19 22 25 27 30 33 34 34 33 32 28 21 15 12 12 12 10 7 6 5 6 7 9 10 12 14 14 14 15 16 15
13 12 11 10 11 12 13 14 13 11 10 10 11 13 14 14 15 15 15 15 15 15 15 16 17 19 20 21 21 20 17 15 13 12 13 13 13 12 12 12 13 13 13 13 13 13 12 12 12 12 13 14 15 16 18 20 23 25 27 30 33 34 34 32 31 27 20 14 11 11 9 7 6 5 5 7 9 11 13 14 15 15 15 14 14
15 13 12 12 11 11 10 10 10 9 9 9 10 11 12 12 13 14 13 13 14 15 16 17 18 19 19 18 17 16 14 12 12 12 12 12 12 12 12 12 13 13 14 14 14 14 13 13 13 13 13 14 15 16 17 19 21 23 25 27 29 32 33 33 32 31 26 20 13 10 8 8 7 5 5 6 9 12 13 14 15 16 17 16 15
11 11 11 12 11 11 10 9 9 9 9 9 8 9 9 10 11 11 12 12 14 16 17 17 17 16 15 14 13 12 11 11 11 11 12 12 12 12 12 12 13 14 15 15 15 15 14 14 14 14 14 14 15 15 17 18 20 21 24 25 27 28 31 33 33 32 30 26 20 12 8 8 9 8 6 7 8 11 13 14 15 15 16 17 16
9 8 8 8 8 8 8 8 8 7 7 7 6 7 8 9 10 12 13 15 16 17 17 15 14 13 12 11 11 11 11 11 12 12 13 13 13 13 13 13 14 15 16 16 16 15 15 15 15 15 15 15 15 16 16 17 19 20 22 23 25 26 28 30 32 32 31 30 26 20 12 9 10 11 10 9 9 9 12 14 15 14 14 14 15
Wind_Direction
293 288 282 279 280 279 277 278 280 276 271 268 264 258 255 256 258 261 265 267 266 266 267 266 266 267 268 270 270 269 267 264 265 270 273 277 279 280 278 274 269 266 263 262 261 260 259 259 259 260 260 261 262 262 261 260 260 261 263 264 265 267 269 270 269 269 269 268 265 263 262 260 258 256 255 255 254 255 257 259 262 264 265 266 267
291 288 285 285 283 279 277 278 279 276 273 273 274 271 262 253 249 253 260 263 264 263 262 264 266 267 267 268 269 269 266 265 266 270 272 273 275 278 280 279 276 273 269 265 261 260 260 260 261 264 265 266 267 268 269 268 266 265 263 263 264 265 266 268 269 270 269 268 268 267 266 265 263 261 260 259 258 257 256 257 258 259 261 262 263
290 287 287 289 288 283 281 282 279 275 272 272 275 278 272 257 244 243 249 254 259 261 261 262 266 269 270 270 269 266 264 263 266 270 274 275 276 276 276 277 277 276 273 269 264 261 260 259 259 259 261 264 266 268 269 271 272 273 273 271 270 270 270 271 272 273 273 272 270 269 269 269 268 266 265 264 262 261 259 258 258 257 258 259 259
290 289 291 293 291 288 285 284 283 280 275 272 273 275 274 263 249 241 242 246 251 257 260 261 263 268 271 271 270 269 266 265 268 272 276 279 280 277 274 274 275 275 274 272 269 265 261 259 257 255 255 256 259 261 263 264 266 267 269 270 271 273 274 276 277 278 279 279 277 276 274 272 271 269 268 268 267 265 264 264 262 260 259 258 258
288 290 293 294 291 289 286 283 282 282 279 276 275 273 270 265 255 249 248 247 250 255 256 258 261 264 268 270 271 270 270 271 273 275 277 278 278 276 273 271 271 272 272 271 270 268 264 261 260 258 256 255 255 257 258 260 262 263 265 266 268 271 273 275 278 280 281 283 283 282 281 279 276 274 272 271 270 269 268 267 267 266 265 263 260
289 289 290 290 288 285 283 281 279 280 278 275 274 270 267 267 266 262 257 252 252 254 252 254 258 260 263 267 270 270 270 273 277 279 280 278 276 275 273 270 269 269 270 269 269 270 270 268 267 265 263 261 259 259 260 261 262 264 267 269 271 273 276 277 279 281 282 284 284 285 284 284 282 280 277 275 273 272 272 271 270 268 268 268 266
287 287 288 289 287 283 281 280 279 279 277 274 272 269 267 269 271 271 269 265 259 256 256 258 261 263 262 261 263 265 267 271 276 279 280 279 280 277 270 266 267 266 266 266 266 267 269 270 270 269 268 267 267 266 266 266 267 268 269 271 273 275 278 280 281 283 283 284 284 285 285 284 284 283 282 280 277 275 274 274 274 272 270 269 268
284 285 286 287 285 283 282 282 281 281 280 277 275 272 272 274 275 275 274 272 267 268 271 270 269 270 267 260 257 258 260 264 269 274 276 278 283 281 269 263 266 264 261 261 261 262 263 265 266 266 267 268 269 269 269 269 270 271 272 274 276 277 279 280 282 283 284 284 284 285 285 285 285 284 283 282 280 278 275 274 274 274 273 272 270
281 282 282 283 283 283 284 284 284 283 281 280 279 278 275 276 277 275 272 271 273 275 276 274 272 273 273 268 264 263 262 263 264 268 273 276 280 279 269 265 267 264 260 260 260 260 262 263 265 265 265 265 267 268 269 269 270 271 273 275 278 280 282 283 283 283 283 282 282 283 283 284 284 284 283 283 282 280 278 276 273 272 273 273 273
279 279 279 279 281 282 283 283 283 283 282 281 280 278 276 276 278 277 275 276 280 281 279 278 276 274 273 273 272 272 270 269 266 266 271 274 276 274 270 269 268 265 264 263 262 262 263 264 265 265 265 266 266 267 267 269 271 272 273 275 278 282 284 284 284 283 282 281 281 280 280 281 282 282 282 281 281 280 279 278 276 273 271 271 273
276 275 276 276 278 279 280 280 281 281 281 280 277 276 276 277 278 279 279 280 281 282 282 281 280 278 277 276 276 275 274 272 271 270 271 273 273 272 272 272 271 269 267 267 266 263 262 263 263 265 266 267 268 268 268 270 274 275 275 276 279 282 283 283 283 282 281 280 279 278 278 278 278 279 280 279 279 278 277 276 275 274 273 271 271
275 274 275 276 277 276 276 277 278 280 280 279 276 275 275 276 276 277 278 279 279 280 281 281 280 280 280 279 278 278 276 274 273 272 272 272 272 271 271 272 272 271 270 270 270 269 267 267 267 269 270 271 269 269 270 273 276 277 277 277 279 280 282 282 281 280 279 279 278 277 277 276 276 276 277 277 276 276 275 274 273 272 272 271 270
273 274 275 276 276 275 274 274 276 277 278 276 274 273 273 275 276 276 276 276 277 278 279 279 279 278 277 277 276 276 275 275 274 273 272 271 271 271 270 270 271 271 271 271 271 271 271 271 271 272 273 273 272 272 273 274 275 276 277 278 279 280 280 280 279 279 279 278 277 275 275 276 275 274 275 276 275 274 273 273 272 271 270 269 269
272 273 274 274 274 273 273 273 273 273 274 273 271 270 272 276 278 278 279 279 279 279 278 277 277 276 276 275 274 274 274 274 274 274 273 271 270 270 269 269 270 270 271 270 270 269 269 269 270 271 271 272 273 274 274 274 274 275 276 277 278 279 279 278 278 279 278 277 276 275 274 274 274 273 272 273 273 272 271 271 271 271 269 268 267
270 271 273 273 272 272 272 272 270 269 270 270 270 270 273 276 277 278 279 281 281 281 279 278 276 276 276 275 275 275 275 275 275 276 276 275 273 272 271 270 270 270 270 269 269 269 269 269 269 270 270 271 273 274 274 273 274 275 275 275 276 276 276 276 276 276 276 275 274 274 273 272 272 272 271 271 271 270 270 270 269 269 268 268 267
268 270 272 272 270 270 271 270 269 268 268 268 269 270 272 273 274 276 277 279 280 280 279 278 276 275 275 275 275 275 276 276 276 276 276 276 275 274 273 272 271 271 271 270 270 271 271 271 270 270 271 272 272 272 271 272 273 274 274 274 274 274 273 274 274 274 274 274 273 273 272 272 271 271 270 270 269 269 269 269 268 267 267 267 266
266 266 267 268 267 267 267 268 269 269 268 269 269 270 270 271 272 274 276 277 278 279 278 278 277 276 275 275 275 275 275 276 276 276 276 275 275 274 273 272 272 272 272 273 273 273 273 273 272 271 272 273 273 272 272 272 273 272 272 271 271 270 270 270 271 271 272 272 272 272 272 272 271 271 270 270 269 269 269 268 268 267 267 266 265
265 264 263 263 263 264 265 267 269 269 270 270 270 270 270 270 271 273 274 276 277 277 276 276 275 275 276 275 275 275 275 275 276 276 276 276 276 276 275 275 275 274 274 274 274 274 274 273 272 272 272 272 272 271 271 271 271 271 271 271 270 268 268 268 268 269 270 270 271 271 271 270 270 270 269 269 269 268 268 267 267 266 267 266 265
264 263 262 261 261 262 265 267 269 269 270 269 269 270 270 271 272 273 274 275 275 274 273 273 272 273 273 273 274 274 274 274 275 275 275 276 276 277 277 277 277 277 277 276 275 275 274 273 273 273 273 271 271 271 271 270 271 271 271 271 270 269 268 269 269 270 270 270 271 270 270 269 269 268 268 268 268 267 267 267 266 266 265 265 265
262 263 263 263 263 264 266 267 267 268 267 267 267 269 270 271 273 273 273 273 272 272 271 270 270 270 271 271 272 272 273 273 274 274 275 275 275 276 276 277 277 277 277 277 277 276 275 274 274 274 273 272 271 272 272 273 273 273 272 271 270 270 270 270 271 271 271 271 271 271 271 270 270 269 269 268 268 267 267 266 266 265 264 264 264
259 260 261 262 263 264 265 265 265 265 265 265 266 268 271 272 273 273 273 272 271 269 269 268 269 269 269 270 271 272 273 273 274 274 275 275 276 276 277 277 277 277 277 277 276 275 274 273 273 272 272 272 272 273 274 274 273 273 272 272 271 271 271 271 271 271 271 271 271 271 271 271 271 271 270 270 269 269 268 268 267 267 266 265 264
257 257 258 260 262 263 264 264 265 265 265 265 266 269 271 272 272 272 272 271 269 268 268 268 268 268 268 269 270 271 272 273 274 275 276 277 277 278 279 279 279 278 277 276 275 274 273 273 272 272 272 272 273 274 274 273 273 272 272 272 272 272 271 271 271 271 270 271 271 271 272 272 272 272 272 272 271 271 270 270 270 269 269 268 266
259 259 259 261 262 264 265 265 265 266 266 266 267 269 270 270 270 270 270 269 269 268 267 267 267 267 268 269 269 270 271 272 273 274 275 276 277 278 279 279 278 277 276 274 274 274 274 273 273 273 273 274 274 274 273 273 272 272 272 272 272 271 271 271 271 271 271 272 272 272 273 273 273 273 273 272 272 272 272 271 271 271 270 270 270
259 260 261 262 263 264 265 265 266 266 265 266 267 268 267 267 267 267 268 268 268 267 267 266 266 266 267 268 269 270 271 272 274 275 276 276 277 277 277 277 276 276 275 275 276 277 276 275 275 275 275 275 275 274 274 274 274 273 273 273 272 271 271 271 271 272 273 273 273 273 273 273 273 272 272 271 271 271 271 271 271 272 272 271 271
259 259 260 261 262 263 264 264 265 265 265 266 267 266 265 265 265 266 266 266 266 266 265 265 265 266 266 267 268 269 270 272 273 274 275 275 276 276 276 275 274 274 275 276 278 278 278 278 278 277 277 277 276 276 276 276 275 275 275 274 273 272 271 271 271 272 272 273 274 274 274 273 273 272 272 271 270 271 271 271 271 272 273 273 273
259 259 259 259 260 261 262 263 263 264 265 265 265 265 264 265 265 265 265 265 265 265 265 264 264 264 265 265 266 267 269 270 271 272 273 274 274 274 274 273 272 273 274 275 276 276 277 278 279 279 279 279 278 278 277 277 277 276 276 275 273 272 271 271 271 272 272 273 274 274 274 274 273 272 271 270 270 271 273 273 272 273 274 275 275
258 258 258 258 258 259 260 261 262 263 263 263 262 262 263 263 263 263 264 264 265 265 264 264 264 265 264 264 265 266 267 269 270 271 272 273 273 272 270 270 272 273 273 273 274 275 276 277 278 279 279 279 279 279 278 278 278 278 277 277 275 275 274 274 274 274 274 274 274 275 275 275 274 273 272 272 272 274 275 276 275 276 277 277 276
258 258 258 257 257 257 257 258 259 260 260 260 259 259 260 260 261 262 263 264 264 264 263 263 264 265 264 263 264 266 267 268 269 270 271 271 271 271 271 271 272 273 273 273 274 275 276 277 278 279 279 279 279 280 279 280 280 280 280 280 280 279 279 279 279 278 278 277 277 277 277 277 276 276 276 276 276 277 278 279 279 280 280 279 277
256 257 257 257 256 255 255 254 255 256 256 257 257 258 258 259 260 261 262 262 262 262 261 261 260 261 262 263 263 264 266 267 267 268 268 269 270 271 272 272 272 272 273 274 275 275 276 277 278 279 279 280 281 282 282 283 284 284 285 285 284 284 284 283 283 282 281 280 280 280 280 279 279 279 280 280 280 281 281 282 282 281 280 278 276
255 255 255 255 255 255 253 252 251 251 253 255 256 257 258 259 261 261 261 261 260 259 260 259 258 259 261 262 261 261 263 265 267 267 268 268 268 269 270 270 271 273 274 274 275 275 276 277 278 279 281 282 284 285 287 287 287 287 287 287 287 286 286 285 284 283 282 282 282 282 283 283 283 283 283 283 283 283 283 282 281 279 277 275 274
255 254 254 254 254 254 253 252 251 250 251 252 253 255 257 258 260 260 260 259 259 258 258 258 257 258 259 260 260 260 261 263 265 266 267 268 268 269 270 271 272 273 273 274 275 276 277 278 280 282 284 286 287 288 288 288 288 288 288 288 287 286 285 285 285 285 284 285 285 285 285 285 284 284 284 284 284 283 282 281 279 278 277 276 275
253 253 253 253 252 252 252 251 251 250 249 249 249 251 253 254 256 257 257 257 257 257 257 257 257 258 258 259 260 261 261 262 262 264 265 267 268 269 270 271 272 273 274 275 276 277 279 281 284 286 287 287 286 286 287 288 288 288 288 287 287 287 286 286 286 286 286 286 286 285 285 285 285 286 286 286 285 283 281 280 279 279 279 279 278
251 251 251 251 251 251 250 250 250 249 248 247 247 248 249 250 252 253 254 255 255 256 256 257 257 258 259 261 261 261 261 262 263 264 265 266 267 268 269 270 272 273 275 276 278 280 282 284 285 284 284 285 287 289 291 291 291 291 290 290 289 289 289 289 289 289 289 288 287 287 287 288 289 289 288 286 283 282 282 282 282 282 282 282 282
251 250 249 249 249 249 249 249 248 248 248 248 247 247 247 248 249 250 251 252 253 254 255 255 256 257 259 261 261 262 262 262 263 264 264 265 266 267 269 270 272 274 276 277 279 280 280 279 279 282 286 291 295 297 297 297 297 297 297 296 296 296 295 294 293 292 290 289 288 289 290 290 290 288 286 284 284 284 285 286 286 287 287 286 286
251 250 249 248 247 248 248 247 247 247 247 248 248 247 247 247 247 248 249 250 250 251 252 253 254 257 259 260 261 262 262 262 262 263 264 265 266 267 268 270 271 271 271 271 269 267 268 272 279 288 298 305 309 309 309 307 306 305 304 303 302 300 297 295 293 290 288 288 289 291 292 291 290 289 287 286 288 291 292 292 291 290 289 288 287
249 248 247 246 246 245 245 245 245 245 245 246 246 247 246 246 247 247 248 248 248 249 250 252 254 256 258 259 260 260 261 262 262 263 264 264 265 266 265 261 256 252 250 248 251 256 262 272 287 304 317 323 325 324 321 317 313 311 309 308 306 303 300 296 293 291 291 293 296 299 298 295 294 295 296 298 300 300 299 297 295 294 293 292 291
248 246 245 244 243 243 243 243 243 243 243 243 244 245 245 246 246 247 246 246 247 248 250 252 253 253 253 254 255 257 260 261 262 262 262 261 259 254 244 232 226 228 233 238 244 250 257 276 304 321 330 335 335 331 327 323 319 317 317 315 313 309 305 302 302 302 302 304 306 305 301 298 300 306 309 307 305 303 302 300 299 298 297 295 293
244 244 242 240 239 239 239 240 240 240 241 241 241 241 242 242 242 243 243 243 244 245 246 246 245 244 245 247 251 255 258 258 258 257 254 248 238 224 213 212 217 224 229 231 230 230 245 284 317 332 338 338 336 334 333 330 326 325 326 325 320 316 315 315 313 309 307 306 304 301 300 305 310 311 311 308 307 306 306 304 302 301 299 297 294
238 238 237 236 235 234 235 235 236 236 236 236 235 234 236 237 235 234 235 236 235 232 230 230 231 234 238 244 249 251 252 251 250 245 235 223 213 208 210 215 219 222 221 216 210 215 240 291 329 339 339 336 336 338 339 336 333 334 337 335 327 321 320 318 312 308 307 304 300 299 306 313 314 313 312 311 311 309 307 306 307 306 304 300 296
230 230 229 227 225 225 225 224 223 219 216 218 219 218 221 225 225 221 221 220 215 211 212 216 222 230 238 244 245 242 238 234 228 218 210 206 207 210 212 212 212 213 210 205 207 217 242 308 334 337 336 337 339 341 343 342 341 343 347 346 336 323 318 315 308 306 307 302 298 304 309 308 312 316 316 315 314 314 315 319 322 322 319 313 304
214 214 213 209 207 207 206 203 201 195 189 194 205 206 206 205 202 198 198 200 199 202 210 217 223 233 239 237 228 220 218 217 213 210 209 207 205 203 203 204 207 207 204 205 211 219 247 311 326 331 335 339 343 344 346 348 348 349 353 356 349 334 323 317 307 299 300 301 302 307 311 315 322 324 322 320 323 329 335 338 338 337 337 333 322
180 183 187 189 190 189 186 184 182 180 181 189 194 190 186 183 181 182 190 196 200 207 215 220 226 233 232 221 211 209 215 222 221 215 208 200 195 195 201 207 208 205 205 210 216 224 254 293 313 327 335 341 345 347 349 352 353 354 358 2 1 352 337 325 312 297 291 297 307 315 322 332 340 338 330 330 339 349 355 354 349 344 344 345 341
146 152 157 162 167 171 174 176 177 176 176 177 174 170 171 175 180 187 196 201 206 211 216 220 226 227 218 208 206 212 221 221 212 201 193 190 192 201 209 210 208 208 212 218 223 233 256 282 305 323 334 340 346 350 352 354 355 357 1 5 6 3 353 338 329 319 307 306 321 332 336 344 351 350 342 345 355 358 357 354 350 346 346 348 350
115 120 125 130 137 145 151 155 157 157 157 158 160 165 173 183 190 194 199 203 206 211 218 222 221 215 209 206 210 215 217 210 199 190 188 192 200 209 214 213 213 216 220 225 231 241 258 280 298 317 331 339 345 352 354 353 355 360 3 5 7 8 4 352 339 330 325 324 333 339 340 343 346 347 348 351 352 352 349 346 346 349 349 349 351
105 111 115 117 120 125 129 134 140 146 151 158 166 175 183 190 194 197 200 203 208 214 219 218 211 205 205 207 209 210 208 202 194 189 193 202 211 217 219 220 223 227 230 233 239 248 262 278 292 311 328 336 344 352 355 353 355 1 4 4 7 10 10 4 351 334 325 325 329 333 335 334 332 339 351 351 345 343 341 338 340 347 351 351 352
107 109 111 112 114 116 121 129 139 149 157 165 173 179 184 188 192 195 199 205 212 216 214 207 202 201 201 200 199 199 199 195 191 192 201 212 219 223 224 225 230 237 242 244 248 255 264 276 291 309 323 333 343 351 353 353 356 0 2 3 6 10 11 11 5 348 331 325 329 332 331 328 328 340 353 350 342 342 345 343 340 343 348 351 351
120 122 123 124 127 130 135 141 148 155 162 168 174 178 182 186 190 196 204 210 213 211 207 204 201 198 193 190 189 191 192 191 193 202 213 220 224 226 227 230 238 246 250 251 255 261 267 276 291 306 317 328 341 348 349 352 357 360 360 2 5 7 9 12 12 3 346 331 328 329 327 324 333 352 357 350 351 1 7 2 353 347 346 347 349
108 116 122 130 139 144 148 152 158 166 172 174 176 180 186 191 199 206 210 209 206 204 203 201 195 187 183 183 186 188 189 194 203 214 222 226 230 232 235 240 247 253 255 256 260 264 269 277 289 302 311 323 335 343 346 351 356 358 358 360 3 5 7 10 13 11 3 347 331 326 325 322 329 349 357 352 0 13 18 12 7 5 3 358 353
100 107 114 123 133 142 150 156 162 167 171 173 179 186 192 197 201 203 204 203 200 196 192 187 181 177 178 183 189 192 195 204 217 226 231 234 236 238 241 248 254 259 260 262 263 266 271 279 287 297 307 318 328 335 341 347 352 355 356 357 360 2 4 8 11 13 12 4 348 329 317 313 318 333 348 348 354 5 10 9 10 13 15 14 8
96 106 117 127 138 147 154 160 165 169 171 175 181 186 187 188 189 190 192 192 188 182 177 174 175 178 183 191 200 205 210 218 229 236 240 241 242 243 246 252 258 262 264 266 267 269 273 279 285 293 303 312 320 327 336 343 347 350 352 354 355 358 3 6 8 11 12 11 4 348 317 298 302 315 324 328 337 349 358 2 5 8 11 14 12
75 82 95 112 129 144 153 160 163 164 166 170 175 181 184 184 182 180 180 180 177 174 172 174 180 186 194 205 217 225 230 234 238 241 243 245 246 248 251 255 259 263 265 267 269 271 274 278 284 291 299 306 313 320 329 336 341 344 347 349 351 355 360 4 6 8 9 11 11 5 345 306 289 295 305 312 318 330 345 354 358 358 360 4 7
Height
5728 5730 5730 5731 5732 5732 5732 5732 5732 5732 5732 5732 5733 5734 5734 5734 5735 5736 5736 5738 5739 5740 5740 5740 5740 5741 5741 5741 5741 5742 5742 5743 5743 5744 5744 5745 5745 5745 5745 5745 5745 5744 5744 5743 5743 5743 5742 5742 5742 5742 5742 5742 5742 5742 5742 5742 5742 5742 5742 5742 5742 5742 5741 5741 5741 5741 5741 5741 5741 5742 5742 5742 5743 5743 5744 5744 5744 5744 5744 5744 5743 5743 5743 5743 5742
5726 5728 5728 5729 5729 5729 5730 5730 5730 5730 5730 5730 5731 5732 5733 5733 5733 5733 5733 5734 5736 5737 5737 5738 5738 5738 5739 5739 5739 5739 5740 5740 5741 5741 5742 5742 5743 5743 5744 5744 5743 5743 5743 5742 5741 5741 5740 5740 5740 5740 5740 5740 5740 5740 5740 5740 5740 5740 5740 5740 5740 5740 5739 5739 5739 5739 5738 5739 5739 5739 5739 5739 5739 5740 5740 5741 5741 5741 5741 5741 5741 5741 5741 5740 5740
5723 5723 5724 5724 5724 5725 5726 5726 5727 5728 5729 5729 5729 5730 5732 5731 5731 5731 5731 5731 5732 5732 5734 5734 5735 5735 5736 5736 5736 5736 5737 5737 5738 5739 5739 5739 5740 5740 5741 5741 5741 5741 5740 5740 5740 5739 5739 5738 5738 5738 5738 5738 5738 5738 5738 5738 5738 5738 5738 5738 5738 5738 5738 5737 5737 5736 5736 5735 5736 5736 5736 5736 5736 5737 5737 5737 5737 5737 5738 5738 5738 5738 5737 5737 5737
5718 5717 5718 5718 5719 5720 5721 5723 5723 5725 5726 5726 5726 5728 5729 5729 5728 5728 5728 5728 5728 5729 5730 5730 5731 5732 5732 5733 5733 5734 5734 5735 5736 5736 5737 5737 5737 5737 5737 5737 5737 5737 5737 5737 5737 5737 5737 5736 5735 5735 5735 5735 5735 5735 5735 5735 5735 5735 5735 5735 5735 5735 5735 5735 5735 5734 5734 5733 5733 5733 5733 5733 5732 5733 5733 5733 5733 5734 5734 5733 5733 5734 5734 5734 5733
5714 5713 5714 5715 5715 5716 5718 5719 5720 5721 5722 5723 5724 5725 5726 5725 5725 5725 5725 5725 5725 5725 5726 5727 5727 5727 5728 5728 5729 5730 5731 5732 5733 5733 5734 5734 5734 5734 5733 5733 5732 5732 5732 5733 5733 5733 5734 5733 5733 5732 5732 5732 5732 5732 5732 5731 5731 5731 5731 5732 5732 5732 5732 5732 5732 5732 5732 5731 5730 5730 5730 5730 5729 5729 5729 5729 5729 5729 5730 5729 5729 5729 5729 5729 5729
5710 5710 5712 5713 5713 5714 5714 5715 5716 5717 5718 5720 5721 5722 5722 5721 5722 5723 5723 5722 5722 5722 5723 5724 5724 5724 5724 5725 5726 5727 5727 5728 5728 5729 5729 5730 5730 5731 5730 5730 5729 5729 5729 5729 5729 5729 5729 5729 5729 5729 5729 5729 5729 5729 5728 5728 5728 5728 5728 5728 5728 5728 5728 5728 5729 5729 5729 5729 5728 5727 5727 5726 5726 5725 5725 5726 5726 5725 5725 5725 5725 5725 5725 5725 5725
5707 5707 5708 5710 5711 5712 5711 5711 5713 5714 5715 5716 5717 5718 5718 5717 5718 5719 5720 5720 5719 5720 5720 5721 5722 5722 5722 5722 5723 5723 5724 5724 5725 5725 5724 5725 5725 5726 5726 5726 5726 5726 5725 5726 5726 5726 5726 5725 5725 5725 5725 5725 5725 5725 5725 5725 5725 5725 5725 5724 5724 5724 5724 5724 5724 5725 5725 5725 5725 5724 5724 5723 5723 5722 5722 5722 5722 5722 5722 5721 5720 5720 5720 5721 5720
5703 5704 5704 5706 5707 5708 5708 5708 5708 5709 5710 5711 5712 5713 5714 5713 5713 5715 5716 5716 5715 5716 5717 5718 5719 5719 5719 5719 5719 5720 5721 5721 5721 5721 5721 5721 5721 5721 5721 5722 5722 5721 5721 5722 5723 5723 5723 5722 5721 5721 5721 5720 5720 5720 5720 5720 5721 5721 5721 5721 5721 5720 5720 5720 5720 5720 5720 5721 5720 5720 5720 5719 5719 5719 5718 5718 5718 5717 5718 5718 5717 5716 5715 5715 5715
5699 5700 5700 5701 5703 5703 5703 5703 5703 5704 5705 5705 5706 5707 5709 5708 5709 5710 5712 5711 5710 5711 5713 5714 5714 5715 5715 5716 5716 5717 5717 5717 5717 5718 5718 5718 5717 5717 5717 5718 5718 5718 5717 5718 5718 5719 5718 5718 5718 5717 5717 5717 5716 5716 5716 5716 5716 5717 5717 5716 5716 5716 5716 5716 5716 5716 5716 5716 5716 5716 5715 5715 5714 5714 5714 5714 5714 5713 5713 5713 5714 5713 5712 5711 5710
5695 5696 5696 5697 5697 5698 5698 5698 5698 5698 5698 5699 5700 5702 5703 5703 5704 5705 5706 5705 5705 5706 5707 5708 5709 5710 5711 5711 5712 5713 5713 5712 5712 5713 5713 5714 5714 5714 5714 5714 5714 5714 5714 5714 5714 5714 5713 5713 5713 5713 5713 5712 5712 5711 5711 5712 5712 5712 5712 5712 5712 5711 5711 5711 5711 5711 5711 5711 5711 5711 5711 5710 5709 5709 5709 5708 5708 5708 5708 5708 5708 5708 5708 5708 5706
5691 5692 5692 5693 5693 5693 5693 5693 5693 5693 5693 5694 5694 5696 5697 5697 5698 5699 5700 5700 5700 5701 5702 5702 5703 5704 5705 5705 5706 5707 5707 5707 5707 5708 5708 5709 5710 5710 5710 5710 5710 5710 5710 5710 5709 5709 5708 5708 5708 5708 5708 5707 5707 5706 5706 5706 5707 5707 5707 5707 5706 5706 5705 5705 5705 5705 5705 5706 5706 5705 5705 5705 5704 5703 5703 5703 5702 5702 5702 5702 5702 5702 5703 5703 5702
5686 5687 5688 5688 5688 5688 5689 5689 5688 5688 5688 5689 5689 5690 5691 5692 5693 5694 5695 5695 5695 5695 5696 5696 5696 5697 5698 5699 5699 5700 5700 5701 5702 5703 5703 5704 5704 5704 5704 5704 5704 5705 5705 5705 5704 5704 5703 5703 5703 5703 5703 5703 5702 5702 5701 5701 5701 5701 5700 5700 5700 5700 5699 5699 5699 5699 5699 5699 5699 5698 5698 5698 5698 5697 5696 5696 5696 5695 5694 5694 5695 5696 5696 5696 5697
5682 5682 5682 5683 5683 5684 5684 5684 5684 5684 5684 5684 5684 5685 5686 5687 5688 5688 5689 5689 5690 5690 5690 5691 5691 5691 5692 5692 5692 5693 5694 5694 5695 5696 5696 5697 5697 5698 5698 5698 5698 5698 5698 5698 5698 5698 5698 5697 5697 5697 5697 5696 5696 5697 5696 5696 5695 5694 5694 5694 5693 5693 5693 5692 5691 5691 5691 5691 5691 5691 5690 5690 5691 5690 5689 5689 5689 5688 5687 5687 5686 5687 5688 5688 5689
5676 5676 5677 5678 5678 5679 5679 5679 5679 5679 5679 5679 5680 5680 5680 5680 5681 5681 5682 5682 5683 5684 5685 5685 5686 5686 5686 5685 5685 5686 5687 5687 5688 5688 5689 5689 5690 5691 5691 5691 5691 5691 5691 5691 5691 5691 5691 5691 5691 5690 5689 5689 5689 5690 5690 5688 5688 5687 5687 5686 5686 5685 5685 5684 5684 5684 5684 5683 5683 5683 5682 5682 5682 5682 5681 5680 5680 5680 5680 5679 5679 5678 5679 5680 5681
5669 5669 5670 5671 5672 5672 5673 5673 5674 5674 5674 5675 5675 5675 5675 5675 5675 5675 5676 5676 5677 5678 5678 5679 5680 5680 5679 5679 5679 5679 5680 5680 5681 5681 5681 5682 5682 5683 5683 5683 5684 5684 5684 5684 5683 5683 5684 5684 5684 5682 5682 5682 5683 5683 5682 5681 5680 5680 5679 5679 5678 5677 5676 5676 5676 5676 5676 5675 5675 5674 5674 5673 5673 5673 5672 5672 5671 5671 5671 5671 5671 5670 5670 5671 5672
5662 5662 5663 5664 5665 5665 5666 5666 5667 5668 5669 5669 5669 5669 5669 5669 5669 5670 5670 5671 5671 5672 5672 5673 5673 5673 5673 5673 5673 5673 5673 5674 5674 5674 5674 5674 5675 5675 5676 5676 5676 5676 5676 5676 5676 5675 5676 5677 5676 5675 5674 5675 5675 5675 5674 5673 5673 5673 5672 5671 5671 5669 5668 5668 5668 5668 5667 5667 5666 5665 5665 5664 5664 5664 5663 5662 5662 5662 5662 5662 5662 5661 5662 5663 5664
5655 5656 5656 5657 5657 5658 5659 5659 5660 5661 5661 5662 5662 5662 5662 5663 5663 5664 5664 5664 5665 5665 5665 5666 5666 5666 5666 5666 5666 5666 5666 5667 5667 5668 5668 5667 5668 5668 5669 5669 5669 5669 5668 5668 5668 5668 5668 5669 5668 5667 5667 5667 5667 5666 5666 5665 5665 5665 5664 5664 5663 5662 5660 5660 5660 5659 5659 5658 5658 5657 5656 5656 5655 5654 5653 5653 5652 5652 5652 5653 5652 5651 5652 5654 5655
5648 5649 5649 5650 5651 5651 5652 5653 5654 5654 5654 5655 5655 5655 5656 5656 5657 5657 5658 5658 5658 5658 5659 5659 5659 5659 5659 5659 5659 5659 5660 5660 5661 5661 5661 5660 5660 5661 5661 5661 5661 5661 5661 5661 5661 5661 5660 5660 5659 5659 5659 5659 5658 5658 5658 5657 5657 5657 5656 5656 5656 5654 5653 5652 5652 5651 5651 5650 5650 5649 5648 5647 5646 5646 5645 5644 5643 5642 5643 5643 5642 5642 5642 5643 5644
5640 5641 5642 5643 5644 5645 5645 5646 5647 5647 5647 5647 5648 5648 5649 5649 5650 5650 5651 5651 5652 5652 5653 5653 5653 5653 5653 5652 5652 5652 5653 5654 5654 5654 5654 5653 5653 5653 5653 5653 5653 5653 5653 5653 5653 5653 5653 5652 5651 5651 5651 5650 5650 5649 5649 5649 5648 5648 5648 5648 5647 5646 5645 5644 5644 5643 5643 5642 5641 5641 5640 5639 5638 5637 5636 5636 5635 5634 5633 5633 5633 5632 5633 5634 5634
5634 5634 5634 5635 5636 5637 5638 5639 5640 5640 5640 5641 5641 5641 5642 5643 5643 5643 5644 5644 5645 5646 5647 5647 5647 5646 5646 5646 5646 5646 5646 5647 5647 5647 5647 5646 5646 5646 5646 5646 5646 5645 5645 5645 5645 5645 5645 5644 5643 5643 5642 5642 5642 5641 5641 5641 5640 5640 5640 5639 5638 5638 5637 5636 5636 5635 5635 5634 5633 5632 5631 5630 5629 5628 5627 5627 5626 5625 5624 5624 5623 5623 5623 5624 5624
5626 5627 5627 5627 5627 5627 5629 5630 5631 5633 5633 5634 5635 5635 5636 5636 5636 5636 5637 5637 5638 5639 5640 5641 5640 5640 5640 5639 5639 5639 5639 5639 5640 5640 5639 5639 5639 5639 5639 5639 5639 5638 5638 5638 5638 5637 5637 5636 5635 5635 5634 5634 5634 5634 5634 5633 5633 5632 5631 5631 5630 5630 5629 5628 5627 5627 5626 5625 5624 5623 5622 5621 5620 5619 5618 5617 5616 5615 5615 5614 5614 5613 5613 5614 5614
5618 5619 5619 5619 5619 5619 5620 5621 5623 5625 5626 5627 5629 5629 5629 5629 5629 5629 5629 5630 5631 5633 5634 5634 5634 5633 5633 5633 5633 5632 5632 5632 5632 5632 5632 5632 5632 5632 5631 5632 5632 5632 5631 5631 5630 5629 5629 5628 5628 5628 5627 5627 5628 5627 5626 5626 5625 5624 5624 5623 5622 5621 5621 5620 5619 5618 5617 5616 5615 5614 5613 5612 5611 5610 5609 5608 5607 5606 5606 5606 5605 5604 5604 5603 5604
5608 5609 5610 5610 5611 5611 5612 5613 5615 5616 5618 5620 5621 5622 5622 5622 5622 5622 5623 5623 5625 5626 5627 5627 5627 5626 5626 5626 5626 5626 5626 5626 5626 5626 5626 5626 5626 5626 5625 5625 5625 5625 5624 5623 5622 5622 5622 5622 5621 5621 5621 5621 5621 5620 5619 5618 5617 5617 5616 5615 5614 5613 5612 5611 5610 5609 5609 5608 5607 5606 5605 5603 5603 5602 5601 5600 5599 5598 5598 5597 5596 5596 5595 5595 5594
5599 5600 5601 5602 5602 5603 5603 5605 5606 5608 5610 5611 5613 5614 5614 5615 5615 5616 5616 5617 5618 5620 5620 5620 5620 5620 5619 5619 5619 5619 5619 5620 5620 5620 5620 5620 5620 5620 5619 5619 5618 5618 5617 5616 5616 5616 5616 5615 5615 5615 5614 5614 5613 5612 5611 5611 5610 5609 5608 5607 5606 5605 5604 5603 5602 5601 5601 5600 5599 5598 5597 5595 5594 5593 5593 5592 5591 5590 5589 5589 5588 5587 5587 5587 5586
5590 5592 5593 5594 5594 5595 5595 5596 5598 5600 5601 5603 5604 5605 5606 5607 5608 5609 5610 5611 5612 5613 5614 5614 5614 5614 5613 5613 5613 5613 5614 5614 5614 5614 5614 5614 5614 5614 5614 5613 5612 5611 5610 5610 5611 5611 5610 5609 5609 5608 5607 5607 5606 5605 5604 5603 5602 5602 5601 5600 5599 5597 5596 5596 5594 5593 5593 5592 5591 5590 5589 5587 5586 5585 5585 5584 5583 5582 5581 5580 5580 5579 5578 5578 5578
5580 5582 5584 5586 5587 5587 5588 5589 5591 5592 5594 5595 5596 5597 5598 5599 5601 5602 5603 5604 5605 5607 5608 5608 5608 5608 5608 5607 5607 5608 5608 5608 5608 5608 5608 5608 5608 5608 5608 5607 5605 5605 5605 5605 5605 5605 5604 5603 5603 5602 5601 5600 5599 5598 5597 5596 5595 5594 5593 5592 5591 5590 5589 5588 5587 5586 5585 5584 5583 5582 5580 5579 5578 5577 5576 5575 5574 5573 5572 5571 5571 5570 5569 5568 5568
5570 5571 5573 5576 5578 5579 5580 5582 5583 5584 5586 5587 5588 5589 5590 5592 5593 5594 5596 5597 5598 5600 5601 5602 5602 5602 5602 5601 5602 5602 5602 5602 5602 5602 5602 5602 5602 5602 5601 5600 5600 5600 5600 5600 5600 5599 5599 5598 5597 5596 5595 5594 5593 5592 5591 5590 5589 5588 5586 5585 5584 5582 5581 5580 5579 5578 5577 5576 5574 5573 5572 5570 5569 5568 5567 5566 5566 5564 5562 5561 5561 5560 5559 5557 5557
5560 5561 5563 5565 5567 5569 5571 5574 5575 5576 5576 5578 5579 5581 5583 5584 5585 5587 5589 5590 5591 5593 5594 5596 5597 5596 5595 5595 5596 5596 5596 5596 5596 5596 5596 5596 5596 5595 5595 5595 5595 5595 5595 5595 5594 5594 5593 5593 5592 5591 5590 5589 5588 5587 5585 5584 5582 5581 5579 5578 5576 5575 5574 5572 5571 5570 5568 5567 5566 5565 5563 5562 5560 5559 5558 5557 5556 5554 5552 5551 5550 5549 5548 5546 5546
5550 5552 5553 5554 5556 5559 5562 5564 5566 5566 5567 5569 5571 5573 5575 5577 5578 5580 5582 5583 5585 5586 5587 5589 5591 5590 5589 5590 5590 5590 5590 5590 5590 5590 5590 5590 5590 5590 5590 5590 5590 5590 5590 5590 5589 5588 5588 5587 5586 5586 5584 5583 5582 5581 5579 5578 5576 5575 5573 5572 5570 5568 5567 5565 5564 5562 5560 5559 5557 5556 5554 5553 5552 5550 5549 5547 5546 5544 5542 5540 5539 5538 5536 5535 5535
5541 5542 5544 5545 5547 5549 5552 5555 5556 5557 5559 5562 5564 5566 5567 5569 5571 5573 5575 5576 5578 5579 5581 5583 5584 5583 5583 5584 5584 5584 5584 5584 5584 5585 5585 5585 5585 5585 5585 5585 5585 5585 5585 5584 5584 5583 5583 5582 5581 5580 5579 5578 5577 5576 5574 5573 5571 5569 5568 5566 5564 5562 5560 5558 5556 5554 5552 5550 5549 5547 5545 5544 5542 5540 5539 5537 5536 5534 5532 5530 5528 5527 5526 5525 5524
5531 5533 5535 5536 5538 5540 5543 5546 5548 5550 5553 5555 5557 5559 5560 5563 5565 5567 5568 5569 5571 5573 5575 5576 5577 5577 5577 5578 5578 5579 5579 5579 5579 5579 5580 5580 5580 5580 5579 5579 5580 5579 5579 5579 5578 5578 5578 5577 5576 5576 5575 5574 5572 5571 5570 5568 5567 5565 5562 5560 5558 5555 5553 5551 5548 5546 5544 5542 5540 5538 5536 5534 5532 5531 5529 5528 5526 5525 5522 5520 5518 5517 5516 5515 5514
5522 5524 5525 5527 5529 5531 5534 5537 5540 5543 5546 5548 5549 5552 5554 5556 5558 5560 5561 5563 5564 5566 5568 5569 5570 5571 5571 5571 5572 5573 5573 5574 5574 5574 5574 5574 5574 5574 5574 5574 5574 5574 5573 5573 5573 5573 5573 5572 5572 5571 5571 5570 5569 5567 5566 5564 5562 5560 5557 5555 5552 5549 5547 5544 5542 5539 5537 5535 5532 5530 5528 5525 5524 5522 5521 5519 5517 5516 5514 5512 5510 5509 5508 5506 5505
5511 5514 5516 5518 5520 5523 5525 5529 5532 5535 5537 5539 5542 5545 5548 5550 5551 5553 5555 5556 5558 5560 5562 5563 5564 5564 5565 5566 5567 5567 5568 5568 5568 5568 5569 5569 5569 5569 5569 5569 5569 5569 5568 5568 5569 5569 5569 5569 5568 5568 5567 5566 5565 5564 5562 5560 5558 5555 5552 5550 5547 5544 5541 5537 5535 5532 5529 5527 5524 5522 5520 5518 5516 5515 5513 5511 5509 5508 5507 5505 5504 5503 5501 5500 5499
5501 5504 5506 5508 5511 5514 5517 5520 5524 5526 5529 5532 5535 5539 5541 5543 5545 5547 5548 5550 5552 5554 5556 5557 5558 5559 5560 5561 5561 5561 5562 5562 5562 5563 5563 5563 5563 5563 5564 5564 5564 5564 5564 5565 5565 5565 5565 5565 5565 5565 5564 5563 5562 5560 5558 5556 5553 5550 5547 5544 5541 5538 5534 5530 5527 5524 5522 5519 5516 5515 5513 5512 5510 5509 5507 5505 5504 5503 5502 5501 5500 5498 5497 5496 5494
5491 5494 5496 5499 5502 5505 5508 5512 5515 5518 5522 5525 5528 5531 5534 5536 5539 5541 5543 5545 5547 5548 5550 5551 5552 5554 5555 5555 5556 5556 5556 5557 5557 5557 5557 5558 5558 5558 5559 5559 5560 5560 5561 5561 5562 5562 5563 5563 5563 5563 5562 5561 5559 5557 5555 5552 5549 5546 5543 5539 5535 5532 5528 5524 5520 5517 5515 5512 5511 5510 5508 5507 5506 5504 5503 5502 5501 5500 5499 5497 5496 5495 5494 5492 5491
5482 5484 5487 5490 5493 5496 5499 5503 5507 5511 5515 5518 5521 5524 5527 5530 5533 5535 5537 5539 5541 5542 5544 5546 5548 5549 5549 5550 5550 5550 5551 5551 5552 5552 5552 5553 5553 5554 5555 5556 5557 5557 5558 5559 5560 5560 5561 5561 5561 5560 5560 5558 5556 5554 5551 5548 5545 5542 5538 5534 5530 5526 5521 5517 5514 5512 5509 5508 5507 5506 5505 5503 5502 5501 5500 5499 5498 5497 5496 5494 5493 5491 5490 5489 5487
5474 5476 5479 5482 5485 5488 5491 5495 5500 5504 5508 5511 5514 5518 5521 5524 5527 5529 5532 5534 5535 5537 5539 5541 5542 5543 5544 5545 5545 5546 5546 5547 5547 5547 5548 5549 5550 5550 5551 5553 5554 5555 5556 5557 5558 5559 5559 5559 5559 5558 5557 5556 5554 5551 5548 5545 5542 5538 5534 5529 5524 5519 5515 5512 5510 5508 5506 5505 5504 5503 5502 5501 5500 5499 5498 5497 5496 5494 5493 5491 5489 5488 5486 5485 5483
5468 5470 5472 5474 5477 5480 5484 5488 5493 5497 5501 5505 5509 5513 5516 5519 5522 5524 5526 5528 5530 5533 5534 5536 5538 5539 5540 5541 5542 5542 5543 5543 5543 5544 5544 5545 5546 5547 5549 5550 5552 5553 5554 5555 5556 5557 5557 5557 5557 5556 5555 5553 5552 5549 5546 5543 5539 5535 5530 5524 5518 5514 5511 5508 5507 5505 5504 5503 5502 5501 5500 5499 5498 5497 5496 5495 5494 5492 5490 5488 5486 5484 5482 5480 5479
5463 5465 5466 5469 5472 5475 5479 5483 5487 5492 5496 5500 5504 5508 5511 5514 5517 5519 5521 5524 5526 5529 5530 5532 5534 5536 5537 5538 5539 5539 5539 5539 5540 5540 5541 5543 5544 5545 5547 5548 5550 5551 5553 5554 5554 5555 5555 5555 5555 5554 5553 5552 5550 5547 5544 5540 5536 5532 5526 5520 5514 5510 5508 5506 5505 5504 5503 5502 5500 5499 5498 5498 5497 5496 5495 5493 5491 5490 5488 5486 5484 5482 5479 5477 5475
5460 5462 5464 5466 5469 5472 5475 5479 5484 5488 5493 5497 5500 5504 5508 5511 5513 5515 5518 5521 5523 5526 5528 5530 5532 5533 5535 5535 5536 5536 5536 5537 5538 5539 5540 5541 5543 5544 5546 5547 5548 5550 5551 5552 5552 5553 5553 5553 5552 5552 5551 5550 5547 5545 5541 5538 5533 5529 5523 5517 5512 5508 5506 5505 5504 5502 5501 5500 5499 5498 5497 5496 5495 5494 5493 5491 5489 5488 5486 5484 5482 5479 5477 5474 5471
5459 5461 5462 5465 5467 5470 5473 5477 5481 5485 5490 5494 5498 5501 5504 5507 5510 5513 5516 5519 5521 5524 5526 5528 5529 5531 5532 5532 5533 5534 5535 5536 5537 5538 5539 5540 5542 5543 5544 5545 5547 5548 5549 5550 5550 5551 5551 5550 5550 5550 5549 5547 5545 5542 5539 5535 5531 5526 5521 5515 5510 5507 5505 5504 5502 5501 5500 5499 5498 5497 5496 5495 5494 5493 5491 5490 5488 5486 5484 5482 5480 5477 5474 5472 5469
5459 5460 5462 5464 5467 5469 5472 5476 5480 5484 5488 5492 5495 5499 5502 5505 5509 5512 5514 5517 5520 5522 5524 5526 5527 5528 5529 5530 5531 5532 5533 5534 5535 5536 5538 5539 5540 5541 5542 5544 5545 5546 5547 5548 5548 5548 5549 5549 5549 5548 5547 5545 5543 5540 5537 5534 5529 5525 5520 5515 5509 5506 5504 5502 5501 5500 5499 5498 5497 5496 5495 5494 5492 5491 5490 5489 5487 5486 5483 5481 5479 5476 5474 5471 5468
5459 5461 5463 5465 5467 5470 5473 5476 5480 5484 5487 5490 5494 5498 5502 5505 5508 5511 5513 5516 5518 5520 5522 5524 5525 5526 5527 5528 5530 5531 5532 5533 5534 5535 5536 5538 5539 5540 5541 5542 5543 5544 5545 5546 5546 5547 5547 5547 5547 5546 5545 5543 5541 5539 5536 5532 5529 5525 5519 5514 5510 5506 5503 5501 5499 5498 5497 5497 5496 5495 5494 5492 5491 5490 5489 5488 5487 5485 5483 5480 5478 5476 5474 5471 5468
5462 5463 5465 5467 5469 5472 5475 5478 5481 5485 5488 5492 5495 5499 5502 5505 5507 5510 5512 5515 5517 5519 5520 5522 5523 5524 5525 5527 5529 5530 5531 5532 5533 5534 5535 5537 5538 5539 5540 5541 5542 5543 5544 5544 5545 5545 5545 5545 5545 5544 5543 5541 5539 5537 5534 5531 5528 5524 5519 5515 5511 5506 5503 5500 5499 5497 5496 5496 5495 5494 5493 5491 5490 5489 5488 5487 5486 5484 5482 5480 5478 5476 5473 5471 5469
5468 5469 5470 5472 5474 5477 5480 5482 5485 5488 5491 5494 5497 5500 5502 5505 5507 5509 5511 5513 5515 5517 5519 5520 5521 5523 5524 5526 5527 5528 5529 5530 5532 5533 5534 5535 5537 5538 5539 5540 5540 5541 5542 5542 5543 5544 5544 5544 5543 5542 5541 5539 5537 5535 5533 5530 5527 5523 5519 5515 5511 5507 5503 5500 5498 5497 5495 5495 5494 5493 5492 5491 5489 5488 5487 5486 5485 5484 5482 5480 5478 5476 5474 5471 5469
5475 5476 5477 5479 5481 5483 5485 5487 5489 5491 5493 5496 5498 5500 5503 5505 5507 5509 5511 5513 5514 5516 5517 5518 5520 5521 5523 5524 5525 5526 5528 5529 5531 5532 5533 5535 5536 5537 5538 5538 5539 5540 5540 5541 5541 5542 5542 5542 5541 5540 5539 5537 5535 5533 5531 5529 5526 5522 5519 5515 5511 5507 5504 5500 5498 5496 5494 5493 5492 5491 5491 5490 5489 5488 5487 5486 5485 5483 5481 5480 5478 5476 5474 5471 5469
5480 5481 5482 5483 5485 5486 5488 5489 5491 5493 5495 5497 5499 5501 5503 5505 5506 5508 5510 5511 5513 5514 5515 5517 5518 5519 5521 5522 5523 5525 5527 5528 5530 5531 5533 5534 5535 5535 5536 5536 5537 5538 5539 5539 5539 5540 5540 5540 5539 5538 5537 5536 5534 5532 5530 5528 5525 5522 5519 5515 5511 5508 5504 5501 5498 5495 5493 5492 5491 5490 5490 5489 5488 5487 5486 5485 5484 5483 5481 5479 5478 5476 5474 5472 5470
5484 5484 5485 5486 5487 5489 5490 5491 5493 5495 5496 5498 5500 5501 5503 5505 5506 5507 5509 5510 5511 5513 5514 5515 5517 5518 5519 5521 5523 5524 5526 5528 5529 5530 5532 5532 5533 5534 5534 5535 5536 5536 5536 5537 5537 5537 5538 5537 5537 5536 5535 5534 5532 5530 5529 5526 5524 5521 5518 5515 5512 5509 5505 5502 5498 5495 5493 5491 5490 5489 5489 5488 5488 5487 5486 5485 5484 5482 5481 5479 5478 5477 5474 5472 5471
5487 5488 5489 5489 5490 5492 5493 5494 5495 5497 5498 5499 5500 5501 5503 5504 5505 5506 5507 5509 5510 5512 5513 5515 5516 5518 5519 5521 5522 5524 5526 5527 5528 5529 5530 5531 5531 5532 5532 5533 5534 5534 5534 5535 5535 5535 5535 5535 5535 5534 5533 5532 5530 5529 5527 5525 5523 5520 5518 5515 5512 5509 5506 5502 5499 5496 5493 5491 5489 5488 5488 5487 5487 5486 5485 5485 5484 5482 5481 5479 5478 5477 5475 5473 5472
5490 5490 5491 5492 5492 5493 5494 5495 5496 5497 5498 5499 5500 5501 5502 5503 5504 5505 5507 5508 5510 5511 5513 5514 5516 5518 5519 5521 5522 5524 5525 5526 5527 5528 5528 5529 5529 5530 5530 5531 5531 5532 5532 5532 5533 5533 5533 5533 5532 5532 5531 5530 5529 5527 5526 5524 5522 5520 5518 5515 5513 5510 5507 5503 5500 5496 5494 5491 5489 5488 5487 5486 5486 5485 5485 5484 5483 5482 5481 5480 5478 5477 5475 5474 5472
5491 5492 5492 5493 5494 5494 5495 5496 5497 5498 5498 5499 5500 5501 5502 5503 5504 5505 5506 5508 5510 5511 5513 5515 5516 5518 5519 5520 5521 5522 5523 5524 5525 5526 5527 5527 5527 5528 5528 5529 5529 5529 5530 5530 5530 5530 5530 5530 5530 5529 5529 5528 5527 5526 5524 5522 5521 5519 5517 5515 5513 5510 5507 5504 5501 5498 5495 5492 5489 5487 5486 5485 5485 5484 5484 5483 5482 5482 5481 5480 5479 5477 5476 5475 5473